Погода в Иэме

Погода в Иэме : погода сейчас, прогноз погоды и архив. Всё, что Вы хотите узнать о погоде в Иэме!

Поиск расширенной информации на нашем сайте:

Другие новости

Новости СМИ2

Главная страница сайта

Новости сайта

02.10.2013

Напоминаем, что на нашем новом сайте вы можете получить высокодетализированные прогнозы погоды по пунктам России, СНГ и мира (включающие важные для авиации метеовеличины, такие как направление и скорость ветра, видимость, явления погоды, количество и форма облачности, нижняя и верхняя граница облачности), а также ознакомиться с разнообразными материалами по авиационной метеорологии и подборкой полезных ссылок на эту тему.

Сайт Метеоцентр.Азия посвящён разработке технологий оптимизации авиаметеорологического обслуживания, включая проектирование и перспективное создание нескольких автоматизированных авиаметеорологических систем:
- система выпуска высокодетальных прогностических карт явлений погоды для нижнего воздушного пространства по России и ближнему зарубежью;
- система верификации прогнозов TAF (выпускаемых синоптиками официальных АМСГ РФ и ближнего зарубежья) и AUTOTAF (выпускаемых сайтом Метеоцентр.Азия) - выявление ошибок, онлайн-сопоставление с фактической погодой METAR, автоматическое внесение коррективов в прогнозы при резком отклонении фактической погоды от прогноза, подсчёт оправдываемости прогнозов по элементам и в целом;
- система обработки, анализа и отображения авиаметеорологической информации для применения провайдерами метеорологической информации.


Погода в Иэме - сегодня

Время (UTC), дата Ветер
(°,м/с) 
Видим.   Явления Облачность Т
(°С)
Тd
(°С)
f(%) Тe
(°С)
Pmin
(гПа)
dP
(гПа)
Po
(мм)
O2
(г/м3)
Тmin Tmax R s Состояние
почвы
06 24.03.17 тихо ()   20000 м    ясно 
-12.6 -17.9 65 -13  1019.2  -0.9  700  297           
09 24.03.17 тихо ()   20000 м    ясно 
-11.9 -19.1 55 -12  1019  700  296    -11.9       
12 24.03.17 090 (В) 20000 м    ясно 
-17.1 -19.7 80 -17  1021.6  0.8  701  303           
15 24.03.17 тихо ()   20000 м    ясно 
-23.6 -24.9 89 -24  1024.1  0.1  701  311           
18 24.03.17 120 (ЮВ) 98  20000 м    1/0 
-30.9   1026.4  -0.1  701             
21 24.03.17 тихо ()   20000 м    ясно 
-31.2 -32.4 89 -31  1027.3  0.8  701  321  -33      33  равномерный
сухой снег
100% 
00 25.03.17 тихо ()   20000 м    6/0 верхняя 
[Ci fib]
-24.4 -25.6 90 -24  1025.2  701  312           
03 25.03.17 тихо ()   20000 м    6/0 верхняя 
[Ci fib]
-17.9 -20.5 80 -18  1022.4  -0.4  701  304           
06 25.03.17 тихо ()   20000 м    6/0 верхняя 
[Ci fib]
-11.5 -16.8 65 -12  1019.5  -0.6  701  296           
09 25.03.17 тихо ()   20000 м    3/0 верхняя 
[Ci fib]
-13 -19.1 60 -13  1019.7  -0.3  700  298    -11.5       
12 25.03.17 060 (СВ) 20000 м    ясно 
-22 -23.9 84 -22  1023.3  0.4  701  309           
15 25.03.17 тихо ()   20000 м    ясно 
-21.1 -21.7 95 -21  1022.4  -0.5  700  307           
18 25.03.17 180 (Ю) 20000 м    ясно 
-22.6 -23.2 95 -26  1022.6  -0.3  700  309           
21 25.03.17 190 (Ю) 20000 м    6/0 верхняя 
[Cs]
-22.2 -22.9 94 -25  1022.4  -0.1  700  309  -26.6      33  равномерный
сухой снег
100% 
00 26.03.17 210 (ЮЗ) 20000 м    8/0 верхняя 
[Cs]
-20.5 -21.1 95 -21  1021.5  -0.2  700  306           
03 26.03.17 тихо ()   20000 м    9/0 верхняя 
[Cs]
-10.2 -15.5 65 -10  1017.4  -0.5  699  294           
06 26.03.17 190 (Ю) 20000 м    6/0 верхняя 
[Ci fib]
-7.9 -13 67 -11  1015.9  -0.7  699  291           
09 26.03.17 050 (СВ) 20000 м    4/0 верхняя 
[Cs]
-10.1 -16.4 60 -10  1017  0.4  699  294    -7.9       
12 26.03.17 тихо ()   20000 м    4/0 верхняя 
[Ci fib]
-16.3 -18.2 85 -16  1019.8  0.6  700  301           
15 26.03.17 800 () 20000 м    4/0 верхняя 
[Ci fib]
-14.8 -15.4 95 -17  1018.7  -0.5  699  299           
18 26.03.17 120 (ЮВ) 20000 м    4/0 верхняя 
[Ci fib]
-13 -14.3 90 -16  1017.6  -0.5  699  297           
21 26.03.17 100 (В) 20000 м    4/0 верхняя 
[Ci fib]
-20.7 -21.9 90 -25  1019.9  -0.4  699  306  -21.4      33  равномерный
сухой снег
100% 
00 27.03.17 110 (В) 20000 м    6/0 средняя, верхняя 
[Ac trans|Ci fib]
-10.5 -15.8 65 -10  1016.2  -0.1  699  294           
03 27.03.17 150 (ЮВ) 20000 м    6/0 верхняя 
[Ci fib]
-7.5 -11.4 74 -7  1013.8  -1.2  698  290           
06 27.03.17 120 (ЮВ) 20000 м    6/0 верхняя 
[Ci fib]
-5.6 -10.3 69 -9  1012.1  -1  697  288           
Время (UTC), дата Ветер
(°,м/с) 
Видим.   Явления Облачность Т
(°С)
Тd
(°С)
f(%) Тe
(°С)
Pmin
(гПа)
dP
(гПа)
Po
(мм)
O2
(г/м3)
Тmin Tmax R s Состояние
почвы

Для получения пояснительной информации подведите курсор к названию столбца.

ПОГОДА в Иэме - архив

Всё, что Вы хотите узнать о погоде в Иэме - удобно и подробно!

Выберите нужную дату (начиная с 1 января 2015* года) и нажмите кнопку "Найти".
Будут отображены архивные сводки погоды по пункту Иэма, начиная с указанной даты.


Отображать данные в формате CSV (для использования в таблицах Excel)


Внимание! Наш архив погоды предназначен исключительно для личного некоммерческого использования в познавательных целях. Если Вам необходимы официальные справки о состоянии погоды (для производственных, юридических, коммерческих и т.п. целей), обращайтесь в органы Росгидромета.

*Примечание: данная дата относится к архиву по метеостанциям СССР (Россия, СНГ, Балтия).
Архив по метеостанциям Зарубежной Европы и Азии (кроме Китая) хранится 10 дней, по другим регионам земного шара (Китай, Африка, Америка, Австралия, Океания) - 1 день.

Иэма - район местоположения метеостанции


Название, широта, долгота, высота метеостанции:
Иэма 65.2°ш. 135.9°д. 676 м над ур. моря [Российская Федерация]

Дополнительная информация

В oтличие oт бoльшинства пoгoдных сайтoв мы публикуем пoдрoбную метеoинфoрмацию в детальнoм прoфессиoнальнoм фoрмате.

Характеристики температуры и влажнoсти вoздуха измеряются на высoте 2 м в тени вдали oт зданий и деревьев.
Скoрoсть ветра измеряется на высoте 10 м (на урoвне рoста челoвека скoрoсть ветра ниже в 1.5-2 раза). Если метеoстанция нахoдится в гoрoде или в лесу, тo скoрoсть ветра занижена на 2-4 м/с пo сравнению с oткрытым местoм. Скoрoсть ветра над акватoриями крупных рек и oзёр, а также на вершинах хoлмoв на 2-5 м/с выше, чем в oбычных услoвиях.
Атмoсфернoе давление в разных тoчках местнoсти мoжет значительнo oтличаться oт давления на метеoстанции, в зависимoсти oт услoвий рельефа (при пoдъёме на 10 м давление пoнижается примернo на 1 мм рт.ст.).